Date String (YYYY-MM-DD hh:mm:ss) UTC,Instrument flags,Ambient pressure (hPa),Sample flow (lpm),Bypass flow (lpm),Sample temperature (°C),Ambient temperature (°C),ASC tube jacket temperature (°C),LED temperature (°C),Box temperature (°C),Sample RH (%),Span deviation,Mass concentration (μg/m³),Mass concentration (μg/m³),Mass concentration (μg/m³)
DateTimeUTC,F1_M11,P_M11,Q1_M11,Q2_M11,T1_M11,T2_M11,T3_M11,T4_M11,T5_M11,U1_M11,ZSPAN_M11,X0_M11,X2_M11,X1_M11
2023-01-29 12:00:00,,0822.9,5.00,0.00,22.4,22.7,00.0,31.1,24.3,05.7,0000.0,0006.06,0004.13,0003.87
2023-01-29 12:01:00,,0822.9,4.98,0.00,22.4,22.2,00.0,31.1,24.3,05.6,0000.0,0006.07,0004.14,0003.88
2023-01-29 12:02:00,,0822.9,5.01,0.00,22.4,21.6,00.0,31.2,24.1,05.6,0000.0,0005.92,0004.14,0003.89
2023-01-29 12:03:00,,0822.8,5.00,0.00,22.3,21.2,00.0,31.2,23.9,05.6,0000.0,0005.83,0004.13,0003.90
2023-01-29 12:04:00,,0822.8,4.99,0.00,22.2,20.8,00.0,31.2,23.8,05.6,0000.0,0005.92,0004.15,0003.92
2023-01-29 12:05:00,,0822.8,5.00,0.00,22.2,20.5,00.0,31.1,23.7,05.6,0000.0,0005.90,0004.17,0003.94
2023-01-29 12:06:00,,0822.8,5.01,0.00,22.1,20.3,00.0,31.1,23.6,05.7,0000.0,0005.97,0004.19,0003.96
2023-01-29 12:07:00,,0822.8,5.03,0.00,22.1,20.8,00.0,31.1,23.7,05.6,0000.0,0006.02,0004.21,0003.97
2023-01-29 12:08:00,,0822.8,4.99,0.00,22.2,21.9,00.0,31.1,24.1,05.6,0000.0,0005.99,0004.22,0003.98
2023-01-29 12:09:00,,0822.8,5.01,0.00,22.3,22.7,00.0,31.1,24.3,05.6,0000.0,0005.88,0004.24,0004.00
2023-01-29 12:10:00,,0822.9,4.99,0.00,22.4,22.9,00.0,31.1,24.4,05.5,0000.0,0005.88,0004.25,0004.02
2023-01-29 12:11:00,,0822.8,4.98,0.00,22.5,22.3,00.0,31.2,24.3,05.5,0000.0,0005.96,0004.27,0004.03
2023-01-29 12:12:00,,0822.9,5.01,0.00,22.4,21.7,00.0,31.2,24.1,05.5,0000.0,0005.90,0004.28,0004.05
2023-01-29 12:13:00,,0822.8,5.00,0.00,22.4,21.2,00.0,31.2,24.0,05.5,0000.0,0006.05,0004.30,0004.05
2023-01-29 12:14:00,,0822.8,4.98,0.00,22.3,20.9,00.0,31.2,23.9,05.5,0000.0,0006.12,0004.29,0004.04
2023-01-29 12:15:00,,0822.9,5.00,0.00,22.2,20.6,00.0,31.2,23.8,05.5,0000.0,0005.99,0004.26,0004.02
2023-01-29 12:16:00,,0822.8,5.00,0.00,22.2,20.4,00.0,31.2,23.7,05.6,0000.0,0005.87,0004.22,0004.00
2023-01-29 12:17:00,,0822.8,5.03,0.00,22.2,20.8,00.0,31.1,23.8,05.6,0000.0,0005.89,0004.22,0003.99
2023-01-29 12:18:00,,0822.8,5.00,0.00,22.3,21.8,00.0,31.1,24.1,05.5,-000.2,0005.85,0004.21,0003.98
2023-01-29 12:19:00,,0822.9,5.00,0.00,22.4,22.6,00.0,31.1,24.4,05.5,-000.6,0005.91,0004.21,0003.97
2023-01-29 12:20:00,,0822.9,4.99,0.00,22.5,22.5,00.0,31.2,24.4,05.5,-001.7,0005.92,0004.21,0003.96
2023-01-29 12:21:00,,0822.9,4.99,0.00,22.5,21.9,00.0,31.2,24.3,05.5,-001.2,0005.95,0004.20,0003.95
2023-01-29 12:22:00,,0822.9,5.00,0.00,22.4,21.4,00.0,31.2,24.1,05.5,-001.2,0005.72,0004.17,0003.94
2023-01-29 12:23:00,,0822.8,5.00,0.00,22.4,21.1,00.0,31.2,24.0,05.5,-001.0,0005.75,0004.17,0003.93
2023-01-29 12:24:00,,0822.8,5.00,0.00,22.3,20.8,00.0,31.2,23.9,05.5,-001.0,0005.67,0004.14,0003.90
2023-01-29 12:25:00,,0822.7,5.01,0.00,22.3,20.6,00.0,31.2,23.8,05.5,-000.7,0005.59,0004.11,0003.90
2023-01-29 12:26:00,,0822.8,5.01,0.00,22.2,20.8,00.0,31.2,23.9,05.5,-000.2,0005.65,0004.11,0003.89
2023-01-29 12:27:00,,0822.8,4.99,0.00,22.3,21.8,00.0,31.1,24.1,05.5,-000.3,0005.77,0004.11,0003.89
2023-01-29 12:28:00,,0822.8,5.00,0.00,22.5,22.6,00.0,31.1,24.4,05.5,-000.1,0005.74,0004.10,0003.88
2023-01-29 12:29:00,,0822.8,5.00,0.00,22.5,22.5,00.0,31.2,24.4,05.4,-000.2,0005.59,0004.07,0003.86
2023-01-29 12:30:00,,0822.8,5.01,0.00,22.5,21.9,00.0,31.2,24.2,05.4,0000.0,0005.41,0004.02,0003.86
2023-01-29 12:31:00,,0822.8,5.00,0.00,22.4,21.4,00.0,31.2,24.1,05.4,0000.0,0005.38,0004.01,0003.84
2023-01-29 12:32:00,,0822.7,5.00,0.00,22.4,21.1,00.0,31.2,24.0,05.4,0000.0,0005.29,0003.98,0003.83
2023-01-29 12:33:00,,0822.7,4.99,0.00,22.3,20.8,00.0,31.2,23.9,05.4,0000.0,0005.34,0003.99,0003.82
2023-01-29 12:34:00,,0822.7,5.02,0.00,22.3,20.6,00.0,31.2,23.9,05.4,0000.0,0005.43,0004.00,0003.80
2023-01-29 12:35:00,,0822.7,5.00,0.00,22.3,20.9,00.0,31.2,23.9,05.5,0000.0,0005.42,0004.00,0003.80
2023-01-29 12:36:00,,0822.7,5.00,0.00,22.3,21.8,00.0,31.2,24.2,05.4,0000.0,0005.41,0004.02,0003.81
2023-01-29 12:37:00,,0822.7,4.99,0.00,22.5,22.7,00.0,31.2,24.4,05.4,0000.0,0005.46,0004.05,0003.81
2023-01-29 12:38:00,,0822.7,5.00,0.00,22.6,22.6,00.0,31.2,24.5,05.4,0000.0,0005.46,0004.06,0003.80
2023-01-29 12:39:00,,0822.7,5.00,0.00,22.5,22.1,00.0,31.2,24.3,05.4,0000.0,0005.51,0004.08,0003.81
2023-01-29 12:40:00,,0822.7,5.00,0.00,22.5,21.5,00.0,31.3,24.2,05.4,0000.0,0005.60,0004.10,0003.82
2023-01-29 12:41:00,,0822.7,4.99,0.00,22.4,21.1,00.0,31.3,24.0,05.4,0000.0,0005.58,0004.10,0003.82
2023-01-29 12:42:00,,0822.7,5.01,0.00,22.4,20.8,00.0,31.3,23.9,05.4,0000.0,0005.52,0004.09,0003.83
2023-01-29 12:43:00,,0822.7,5.00,0.00,22.3,20.6,00.0,31.2,23.9,05.4,0000.0,0005.51,0004.09,0003.84
2023-01-29 12:44:00,,0822.7,4.99,0.00,22.3,20.7,00.0,31.2,23.9,05.4,0000.0,0005.46,0004.08,0003.84
2023-01-29 12:45:00,,0822.7,5.00,0.00,22.4,21.7,00.0,31.2,24.2,05.4,0000.0,0005.29,0004.06,0003.84
2023-01-29 12:46:00,,0822.7,4.99,0.00,22.5,22.6,00.0,31.2,24.4,05.4,0000.0,0005.28,0004.07,0003.86
2023-01-29 12:47:00,,0822.7,4.99,0.00,22.6,23.1,00.0,31.2,24.6,05.3,0000.0,0005.28,0004.07,0003.86
2023-01-29 12:48:00,,0822.7,4.99,0.00,22.6,22.6,00.0,31.3,24.5,05.3,0000.0,0005.42,0004.05,0003.87
2023-01-29 12:49:00,,0822.7,5.02,0.00,22.6,21.9,00.0,31.3,24.3,05.3,0000.0,0005.34,0004.04,0003.88
2023-01-29 12:50:00,,0822.7,4.99,0.00,22.5,21.5,00.0,31.3,24.2,05.3,0000.0,0005.36,0004.05,0003.91
2023-01-29 12:51:00,,0822.7,4.99,0.00,22.5,21.1,00.0,31.3,24.1,05.3,0000.0,0005.40,0004.06,0003.91
2023-01-29 12:52:00,,0822.6,5.02,0.00,22.4,20.9,00.0,31.3,24.0,05.3,0000.0,0005.53,0004.10,0003.93
2023-01-29 12:53:00,,0822.6,4.99,0.00,22.4,20.6,00.0,31.3,23.9,05.3,0000.0,0005.60,0004.12,0003.94
2023-01-29 12:54:00,,0822.7,4.99,0.00,22.3,20.7,00.0,31.3,23.9,05.3,0000.0,0005.63,0004.14,0003.95
2023-01-29 12:55:00,,0822.6,5.01,0.00,22.4,21.6,00.0,31.2,24.2,05.3,0000.0,0005.64,0004.14,0003.96
2023-01-29 12:56:00,,0822.7,5.03,0.00,22.5,22.6,00.0,31.2,24.4,05.3,0000.0,0005.74,0004.16,0003.96
2023-01-29 12:57:00,,0822.7,5.00,0.00,22.6,22.8,00.0,31.3,24.6,05.2,0000.0,0005.78,0004.16,0003.96
2023-01-29 12:58:00,,0822.7,4.99,0.00,22.6,22.2,00.0,31.3,24.4,05.2,0000.0,0005.79,0004.16,0003.98
2023-01-29 12:59:00,,0822.6,5.00,0.00,22.5,21.6,00.0,31.3,24.2,05.2,0000.0,0005.52,0004.16,0003.97
